CZ-6A DEB

Satellite information

Favourite Embed

Satellite Type and Status

DEBRISIN ORBIT

Key statistics

Satellite CZ-6A DEB at a glance.

Uptime

1030

Days in orbit

Revolutions

≈ 14.3

Per day

Orbit

SSO

Sun Synchronous Orbit

Inclination

98.8

Latest

Satellite identification and parameters

Extended collection of information and parameters for CZ-6A DEB.

Object identification

Identified? True

Debris? True

Object name: CZ-6A DEB

International designator: 2022-151AAK

Object number (NORAD): 55887

Object ID (CCSDS): 55887

Country: PEOPLES REPUBLIC OF CHINA (PRC)

Current information (Y/N): Y

RCS size: SMALL

Orbital parameters

Period: 100.86 minutes

Inclination: 98.8065 deg

SMA: 7177.506 km

Apoapsis: 838.572 km

Periapsis: 760.169 km

RAAN: 261.6537 deg

Eccentricy: 0.00546174

Argument of periapsis: 74.4818 deg

Mean anomaly: 286.2384 deg

Mean motion: 14.27718073 rev/day

Mean motion (dot): 0.00009154 rev/day2

B* drag term: 0.003665088 1/REarth

Two-line elements (TLE)

Creation date: Sept. 4, 2025, 10:13 a.m.

Reference frame: TEME

Reference center: EARTH

Epoch: Sept. 4, 2025, 12:06 a.m. UTC

TLE line 0: 0 CZ-6A DEB

TLE line 1: 1 55887U 22151AAK 25247.00458886 .00009154 00000-0 36651-2 0 9995

TLE line 2: 2 55887 98.8065 261.6537 0054617 74.4818 286.2384 14.27718073140240

Live tracking on map

Real-time ground track for satellite CZ-6A DEB.

In-orbit conjunctions

A list of the most updated potential collisions computed for object CZ-6A DEB.

Target Orbit TCA Probability of collision Miss distance Type
CZ-6A DEB LEO 2025-02-06 12:11:10 0.000363626 347.0 (m) DEBRIS
COSMOS 2251 DEB LEO 2024-11-12 09:36:08 0.0008119296 309.0 (m) DEBRIS
FENGYUN 1C DEB SSO 2024-09-25 15:30:36 0.0002207005 964.0 (m) DEBRIS

Associated space launch

Chinese satellite reported for atmospheric/ocean/environmental/spatial parameter research purposes, details TBD.

CZ-6A DEB was lifted into orbit during the mission ‘Long March 6A | Yunhai 3’, on board a Long March 6A space rocket.

The launch took place on Nov. 11, 2022, 10:52 p.m. from Launch Complex 9A.

For more information about the launch, click the button.

Launch to space Long March 6A | Yunhai 3
Long March 6A | Yunhai 3

Agency: N/A

Status: Launch Successful

Launch date: Nov. 11, 2022, 10:52 p.m. UTC

Rocket: Long March 6A

Launch pad: Launch Complex 9A

Location: Taiyuan Satellite Launch Center, People's Republic of China

...

Latest news about this satellite

There are no fresh news available about this satellite. Check back as we update our databases every day.


Newsletter sign-up

Weekly statistics, charts and insights to help you stay on top of the space industry.